Location: Gull Harbor
(47.1000°N, 122.9000°W)
Time: 04:27:44
(UTC-07:00)

Amateur Radio Satellites - All Passes

Search period start: 22 September 2017 03:57
Search period end: 23 September 2017 03:57
Location: Gull Harbor, 47.1000°N, 122.9000°W

Satellite Date Start Highest point End Downlink Frequencies (MHz)
Time Altitude Azimuth
MOZHAYETS 4 22 Sep 04:04:07 04:08:35 48° 261° (W) 04:13:06
BUGSAT 1 22 Sep 04:05:02 04:05:39 10° 303° (WNW) 04:06:16 437.445
ITUPSAT 1 22 Sep 04:16:35 04:21:00 37° 263° (W) 04:25:27 437.325
ISS 22 Sep 04:18:28 04:21:32 36° 216° (SW) 04:24:35 437.550
RS-15 22 Sep 04:20:59 04:28:49 20° 96° (E) 04:36:39 29.354- 29.394
CUBESAT XI-V 22 Sep 04:25:20 04:30:00 66° 73° (ENE) 04:34:41 437.345
BEESAT 3 22 Sep 04:32:05 04:35:55 41° 46° (NE) 04:39:41 437.485
ITAMSAT 1 22 Sep 04:33:27 04:38:28 46° 99° (E) 04:43:28 435.822/435.867
BEESAT 2 22 Sep 04:35:27 04:38:35 21° 37° (NE) 04:41:41 435.950
KKS-1 22 Sep 04:37:20 04:41:20 34° 67° (ENE) 04:45:21 437.445
Gurwin Techsat 1B 22 Sep 04:43:34 04:47:30 21° 301° (WNW) 04:51:25 435.225
BEESAT 22 Sep 04:56:17 04:59:18 16° 270° (W) 05:02:19 436.000
nSIGHT-1 22 Sep 05:02:08 05:04:08 15° 224° (SW) 05:06:08 .
STARS 22 Sep 05:06:55 05:10:41 30° 66° (ENE) 05:14:28 437.465
DOVE 4 22 Sep 05:28:16 05:30:51 16° 91° (E) 05:33:28 437.250
AO-85 22 Sep 05:29:35 05:33:53 58° 50° (NE) 05:38:31 145.980
AO-7 22 Sep 05:37:41 05:45:58 73° 294° (WNW) 05:54:11 .
O/OREOS (USA 219) 22 Sep 05:41:02 05:42:27 11° 319° (NW) 05:43:52 437.305
CUBESAT XI-V 22 Sep 06:04:59 06:07:49 16° 271° (W) 06:10:41 437.345
BEESAT 3 22 Sep 06:10:03 06:13:16 24° 245° (WSW) 06:16:26 437.485
CUTE-I 22 Sep 06:10:58 06:13:24 13° 87° (E) 06:15:50 437.470
BEESAT 2 22 Sep 06:12:40 06:16:43 65° 236° (SW) 06:20:41 435.950
ITAMSAT 1 22 Sep 06:13:21 06:17:43 28° 298° (WNW) 06:22:04 435.822/435.867
KKS-1 22 Sep 06:14:11 06:17:56 27° 265° (W) 06:21:43 437.445
XW-2D 22 Sep 06:19:13 06:21:24 15° 90° (E) 06:23:33 145.860 - 145.880
RS-15 22 Sep 06:26:52 06:39:03 72° 119° (ESE) 06:51:14 29.354- 29.394
XW-2B 22 Sep 06:31:03 06:33:48 19° 92° (E) 06:36:32 145.730 - 145.750
XW-2F 22 Sep 06:32:27 06:35:10 18° 92° (E) 06:37:52 145.980 - 146.000
STARS 22 Sep 06:43:06 06:46:58 31° 264° (W) 06:50:52 437.465
HO-68 22 Sep 06:50:13 06:53:49 14° 85° (E) 06:57:24 435.675
XW-2C 22 Sep 06:51:46 06:55:15 32° 96° (E) 06:58:40 145.795 - 145.815
STRAND 1 22 Sep 06:51:49 06:56:21 34° 65° (ENE) 07:00:54 437.568
NUDT-PHONESAT 22 Sep 07:00:55 07:04:13 29° 96° (E) 07:07:29 437.300
LilacSat-2 22 Sep 07:01:53 07:05:37 44° 99° (E) 07:09:16 437.200
DOVE 4 22 Sep 07:04:46 07:08:52 54° 287° (WNW) 07:13:05 437.250
AO-85 22 Sep 07:10:38 07:14:00 21° 246° (WSW) 07:17:33 145.980
KAITUO 1B 22 Sep 07:26:28 07:30:12 60° 101° (E) 07:33:54 145.475/437.950
AO-7 22 Sep 07:31:41 07:37:25 21° 316° (NW) 07:43:09 .
CUTE-I 22 Sep 07:48:51 07:54:12 88° 100° (E) 07:59:33 437.470
XW-2D 22 Sep 07:52:09 07:55:52 48° 287° (WNW) 07:59:31 145.860 - 145.880
SEEDS 22 Sep 08:00:02 08:03:30 24° 94° (E) 08:06:55 437.485
XW-2B 22 Sep 08:04:34 08:08:08 37° 290° (WNW) 08:11:38 145.730 - 145.750
XW-2F 22 Sep 08:05:54 08:09:26 37° 290° (WNW) 08:12:56 145.980 - 146.000
FO-29 22 Sep 08:09:40 08:13:59 24° 62° (ENE) 08:18:06 435.910
CUTE 1.7 + AOD 2 22 Sep 08:24:25 08:28:41 70° 102° (ESE) 08:32:52 437.475
XW-2C 22 Sep 08:26:15 08:29:16 22° 294° (WNW) 08:32:16 145.795 - 145.815
AAUSAT CUBESAT 2 22 Sep 08:27:44 08:30:59 22° 93° (E) 08:34:12 437.432
STRAND 1 22 Sep 08:30:49 08:35:29 36° 263° (W) 08:40:11 437.568
UNISAT 6 22 Sep 08:34:54 08:36:14 11° 56° (NE) 08:37:34 437.425
NUDT-PHONESAT 22 Sep 08:34:57 08:37:58 23° 293° (WNW) 08:40:58 437.300
HO-68 22 Sep 08:35:34 08:42:47 73° 105° (ESE) 08:49:58 435.675
CUBEBUG 2 22 Sep 08:36:50 08:41:27 56° 100° (E) 08:46:07 437.445
LilacSat-2 22 Sep 08:37:00 08:39:33 17° 296° (WNW) 08:42:05 437.200
RS-15 22 Sep 08:40:32 08:52:26 50° 326° (NW) 09:04:14 29.354- 29.394
UWE-3 22 Sep 08:47:12 08:51:39 43° 97° (E) 08:56:06 435.000/436.395/437.385
TIGRISAT 22 Sep 08:57:21 09:00:08 17° 60° (ENE) 09:02:58 435.000
KAITUO 1B 22 Sep 09:01:57 09:03:43 13° 299° (WNW) 09:05:28 145.475/437.950
XW-2A 22 Sep 09:13:11 09:16:37 68° 285° (WNW) 09:20:00 145.665 - 145.685
CUTE-I 22 Sep 09:30:21 09:33:33 16° 304° (NW) 09:36:46 437.470
SEEDS 22 Sep 09:35:27 09:39:14 34° 291° (WNW) 09:43:00 437.485
AO-73 22 Sep 09:36:27 09:41:02 67° 101° (E) 09:45:34 145.935
Oscar 11 22 Sep 09:37:32 09:41:45 47° 99° (E) 09:45:56 .
ZACube-1 22 Sep 09:38:20 09:42:57 77° 102° (ESE) 09:47:32 437.345
FO-29 22 Sep 09:53:15 09:58:51 55° 259° (W) 10:04:02 435.910
PRISM 22 Sep 09:58:10 10:01:57 37° 69° (ENE) 10:05:44 437.425
Max Valier Satellite 22 Sep 09:59:44 10:01:43 14° 90° (E) 10:03:41 145.860
CUTE 1.7 + AOD 2 22 Sep 10:01:44 10:03:58 14° 300° (WNW) 10:06:11 437.475
AAUSAT CUBESAT 2 22 Sep 10:02:45 10:06:33 36° 291° (WNW) 10:10:18 437.432
UNISAT 6 22 Sep 10:07:49 10:12:10 83° 74° (ENE) 10:16:39 437.425
DELFI C3 22 Sep 10:10:22 10:13:37 24° 94° (E) 10:16:50 145.870
CUBEBUG 2 22 Sep 10:14:17 10:17:41 20° 297° (WNW) 10:21:08 437.445
HO-68 22 Sep 10:24:05 10:29:55 28° 305° (NW) 10:35:45 435.675
UWE-3 22 Sep 10:24:06 10:27:53 25° 295° (WNW) 10:31:41 435.000/436.395/437.385
TIGRISAT 22 Sep 10:32:04 10:36:21 61° 259° (W) 10:40:46 435.000
RS-15 22 Sep 10:57:48 11:08:39 34° 359° (N) 11:19:11 29.354- 29.394
EO-88 22 Sep 11:02:32 11:06:09 53° 100° (E) 11:09:43 145.990 - 145.960
DUCHIFAT 1 22 Sep 11:04:40 11:07:10 16° 61° (ENE) 11:09:41 145.980
AIST 2D 22 Sep 11:05:05 11:08:23 37° 71° (ENE) 11:11:42 435.315
YUBILEINY 22 Sep 11:11:48 11:16:21 16° 72° (ENE) 11:20:54 435.215
AO-73 22 Sep 11:13:50 11:16:45 17° 299° (WNW) 11:19:40 145.935
Oscar 11 22 Sep 11:14:23 11:17:34 20° 297° (WNW) 11:20:44 .
POLYITAN 1 22 Sep 11:15:07 11:18:31 24° 65° (ENE) 11:21:56 437.675
ZACube-1 22 Sep 11:16:03 11:18:38 15° 300° (WNW) 11:21:11 437.345
EO-79 22 Sep 11:19:42 11:23:12 26° 66° (ENE) 11:26:44 145.935-145.965
Max Valier Satellite 22 Sep 11:32:11 11:35:50 49° 287° (WNW) 11:39:27 145.860
QB50P2 22 Sep 11:32:18 11:36:12 38° 69° (ENE) 11:40:08 145.880/145.840
ESTCUBE 1 22 Sep 11:33:18 11:35:38 14° 89° (E) 11:37:57 437.505/2401.250
PRISM 22 Sep 11:34:10 11:37:20 21° 266° (W) 11:40:32 437.425
M-CUBED/EXP-1 PRIME 22 Sep 11:44:54 11:48:30 28° 62° (ENE) 11:51:54 437.505
DELFI C3 22 Sep 11:44:56 11:48:23 30° 292° (WNW) 11:51:48 145.870
BUGSAT 1 22 Sep 11:46:46 11:48:18 12° 58° (ENE) 11:49:51 437.445
UNISAT 6 22 Sep 11:48:20 11:49:32 11° 274° (W) 11:50:44 437.425
LO-87 22 Sep 12:03:36 12:06:59 37° 98° (E) 12:10:20 145.935 - 145.965
NANOSAT C BR1 22 Sep 12:08:54 12:13:04 74° 74° (ENE) 12:17:18 145.865
SPROUT 22 Sep 12:20:06 12:20:33 10° 87° (E) 12:21:00 437.525
O/OREOS (USA 219) 22 Sep 12:25:15 12:29:47 52° 60° (ENE) 12:34:17 437.305
EO-88 22 Sep 12:37:29 12:39:23 14° 298° (WNW) 12:41:17 145.990 - 145.960
DUCHIFAT 1 22 Sep 12:38:14 12:42:22 61° 259° (W) 12:46:33 145.980
AIST 2D 22 Sep 12:39:26 12:41:43 16° 268° (W) 12:44:02 435.315
Gurwin Techsat 1B 22 Sep 12:48:43 12:52:44 22° 60° (ENE) 12:56:47 435.225
POLYITAN 1 22 Sep 12:50:13 12:54:07 37° 263° (W) 12:58:04 437.675
EO-79 22 Sep 12:55:03 12:58:50 33° 263° (W) 13:02:41 145.935-145.965
AO-7 22 Sep 13:00:00 13:04:30 16° 38° (NE) 13:09:01 .
YUBILEINY 22 Sep 13:02:51 13:11:29 72° 94° (E) 13:20:09 435.215
ESTCUBE 1 22 Sep 13:08:26 13:12:56 70° 287° (WNW) 13:17:23 437.505/2401.250
QB50P2 22 Sep 13:08:47 13:12:07 22° 267° (W) 13:15:29 145.880/145.840
RS-15 22 Sep 13:13:09 13:24:54 48° 32° (NNE) 13:36:02 29.354- 29.394
Oscar 19 22 Sep 13:13:25 13:18:23 48° 69° (ENE) 13:23:23 437.125/150
M-CUBED/EXP-1 PRIME 22 Sep 13:18:58 13:22:50 32° 257° (WSW) 13:26:29 437.505
BUGSAT 1 22 Sep 13:19:02 13:23:03 79° 257° (WSW) 13:27:09 437.445
NO-84 22 Sep 13:23:12 13:25:45 17° 131° (SE) 13:28:13 435.350 FM
LO-87 22 Sep 13:37:41 13:40:08 18° 295° (WNW) 13:42:36 145.935 - 145.965
VELOX 1 22 Sep 13:43:17 13:47:36 54° 101° (E) 13:51:54 145.980
50 SAT 22 Sep 13:45:23 13:47:36 17° 93° (E) 13:49:49 437.505
NANOSAT C BR1 22 Sep 13:47:51 13:49:18 12° 272° (W) 13:50:47 145.865
SPROUT 22 Sep 13:52:44 13:57:03 87° 287° (WNW) 14:01:21 437.525
O/OREOS (USA 219) 22 Sep 14:05:30 14:08:48 20° 259° (W) 14:12:06 437.305
ITAMSAT 1 22 Sep 14:17:43 14:20:48 16° 56° (NE) 14:23:54 435.822/435.867
SO-50 22 Sep 14:21:49 14:25:23 24° 114° (ESE) 14:28:58 436.795
Gurwin Techsat 1B 22 Sep 14:27:01 14:32:16 61° 258° (WSW) 14:37:33 435.225
AO-7 22 Sep 14:47:29 14:55:28 53° 61° (ENE) 15:03:28 .
UKube-1 22 Sep 14:52:07 14:56:19 50° 100° (E) 15:00:29 .
Oscar 19 22 Sep 14:53:38 14:57:55 26° 267° (W) 15:02:14 437.125/150
DX 1 22 Sep 14:56:16 15:00:38 85° 105° (ESE) 15:04:59 434.975-435.025
NO-84 22 Sep 14:59:08 15:02:51 80° 325° (NW) 15:06:17 435.350 FM
YUBILEINY 22 Sep 15:01:46 15:09:07 30° 297° (WNW) 15:16:32 435.215
BEESAT 22 Sep 15:15:06 15:17:16 13° 88° (E) 15:19:25 436.000
50 SAT 22 Sep 15:17:14 15:20:11 30° 290° (WNW) 15:23:08 437.505
PCSat 22 Sep 15:17:42 15:22:46 43° 114° (ESE) 15:27:53 145.827
VELOX 1 22 Sep 15:20:37 15:23:40 19° 299° (WNW) 15:26:42 145.980
RS-15 22 Sep 15:26:18 15:38:15 73° 240° (WSW) 15:49:32 29.354- 29.394
SPROUT 22 Sep 15:30:57 15:32:15 11° 303° (WNW) 15:33:33 437.525
ITAMSAT 1 22 Sep 15:54:24 15:59:35 86° 255° (WSW) 16:04:48 435.822/435.867
MOZHAYETS 4 22 Sep 15:55:59 16:00:08 31° 95° (E) 16:04:15
SO-50 22 Sep 16:01:10 16:05:33 51° 313° (NW) 16:09:59 436.795
ITUPSAT 1 22 Sep 16:13:24 16:18:01 44° 99° (E) 16:22:37 437.325
CUBESAT XI-V 22 Sep 16:20:29 16:22:39 13° 88° (E) 16:24:48 437.345
UKube-1 22 Sep 16:28:56 16:31:59 19° 298° (WNW) 16:35:03 .
DX 1 22 Sep 16:34:18 16:36:11 13° 303° (WNW) 16:38:04 434.975-435.025
DOVE 4 22 Sep 16:36:28 16:39:57 23° 66° (ENE) 16:43:19 437.250
NO-84 22 Sep 16:37:40 16:40:36 24° 345° (NNW) 16:43:22 435.350 FM
AO-7 22 Sep 16:40:39 16:48:25 42° 261° (W) 16:56:13 .
BEESAT 22 Sep 16:50:49 16:55:39 83° 286° (WNW) 17:00:26 436.000
PCSat 22 Sep 17:01:13 17:06:14 37° 314° (NW) 17:11:18 145.827
XW-2D 22 Sep 17:04:04 17:05:44 12° 61° (ENE) 17:07:24 145.860 - 145.880
XW-2B 22 Sep 17:15:36 17:17:57 16° 63° (ENE) 17:20:18 145.730 - 145.750
XW-2F 22 Sep 17:16:36 17:18:53 15° 63° (ENE) 17:21:12 145.980 - 146.000
HO-68 22 Sep 17:22:54 17:27:24 18° 48° (NE) 17:31:56 435.675
MOZHAYETS 4 22 Sep 17:33:08 17:37:16 32° 293° (WNW) 17:41:22
CUTE-I 22 Sep 17:34:50 17:39:24 30° 63° (ENE) 17:43:59 437.470
XW-2C 22 Sep 17:35:52 17:39:04 25° 67° (ENE) 17:42:17 145.795 - 145.815
ITAMSAT 1 22 Sep 17:37:50 17:39:49 12° 273° (W) 17:41:50 435.822/435.867
RS-15 22 Sep 17:41:01 17:48:20 19° 264° (W) 17:55:28 29.354- 29.394
NUDT-PHONESAT 22 Sep 17:43:00 17:45:56 22° 66° (ENE) 17:48:52 437.300
SO-50 22 Sep 17:44:39 17:47:04 14° 335° (NNW) 17:49:29 436.795
LilacSat-2 22 Sep 17:46:23 17:49:55 34° 69° (ENE) 17:53:28 437.200
ITUPSAT 1 22 Sep 17:51:40 17:55:37 26° 297° (WNW) 17:59:33 437.325
CUBESAT XI-V 22 Sep 17:55:56 18:00:35 77° 286° (WNW) 18:05:12 437.345
KKS-1 22 Sep 18:01:01 18:05:18 44° 99° (E) 18:09:32 437.445
KAITUO 1B 22 Sep 18:08:52 18:12:28 42° 71° (ENE) 18:16:05 145.475/437.950
DOVE 4 22 Sep 18:13:22 18:17:30 38° 262° (W) 18:21:29 437.250
NO-84 22 Sep 18:16:12 18:18:46 21° 7° (N) 18:21:11 435.350 FM
STARS 22 Sep 18:28:39 18:32:44 36° 98° (E) 18:36:47 437.465
BEESAT 22 Sep 18:30:33 18:32:40 13° 305° (NW) 18:34:45 436.000
XW-2D 22 Sep 18:35:34 18:39:24 67° 259° (W) 18:43:15 145.860 - 145.880
XW-2B 22 Sep 18:48:00 18:51:45 50° 261° (W) 18:55:32 145.730 - 145.750
XW-2F 22 Sep 18:48:53 18:52:37 51° 260° (W) 18:56:24 145.980 - 146.000
PCSat 22 Sep 18:48:59 18:51:16 12° 338° (NNW) 18:53:33 145.827
SEEDS 22 Sep 18:54:24 18:57:55 26° 66° (ENE) 19:01:26 437.485
ZACube-1 22 Sep 19:04:02 19:05:26 11° 57° (ENE) 19:06:50 437.345
HO-68 22 Sep 19:06:52 19:13:59 73° 69° (ENE) 19:21:08 435.675
XW-2C 22 Sep 19:09:47 19:13:09 28° 264° (W) 19:16:33 145.795 - 145.815
CUTE-I 22 Sep 19:14:15 19:19:17 43° 262° (W) 19:24:21 437.470
NUDT-PHONESAT 22 Sep 19:16:14 19:19:38 32° 264° (W) 19:23:03 437.300
CUTE 1.7 + AOD 2 22 Sep 19:19:25 19:23:42 71° 74° (ENE) 19:27:59 437.475
AAUSAT CUBESAT 2 22 Sep 19:20:38 19:23:54 23° 65° (ENE) 19:27:10 437.432
LilacSat-2 22 Sep 19:21:17 19:24:16 21° 267° (W) 19:27:17 437.200
CUBESAT XI-V 22 Sep 19:35:46 19:37:09 11° 304° (NW) 19:38:30 437.345
CUBEBUG 2 22 Sep 19:37:42 19:41:53 62° 73° (ENE) 19:46:15 437.445
KKS-1 22 Sep 19:38:08 19:41:35 23° 297° (WNW) 19:45:03 437.445
KAITUO 1B 22 Sep 19:44:12 19:46:39 16° 269° (W) 19:49:08 145.475/437.950
XW-2A 22 Sep 19:46:39 19:50:00 60° 75° (ENE) 19:53:25 145.665 - 145.685
UWE-3 22 Sep 19:46:53 19:51:00 46° 71° (ENE) 19:55:16 435.000/436.395/437.385
NO-84 22 Sep 19:53:35 19:56:40 54° 29° (NNE) 19:59:32 435.350 FM
BEESAT 3 22 Sep 20:01:48 20:05:04 25° 115° (ESE) 20:08:23 437.485
STARS 22 Sep 20:05:15 20:08:55 26° 295° (WNW) 20:12:35 437.465
SEEDS 22 Sep 20:29:36 20:33:28 34° 264° (W) 20:37:21 437.485
AO-73 22 Sep 20:34:23 20:38:42 72° 73° (ENE) 20:43:09 145.935
Oscar 11 22 Sep 20:34:48 20:39:02 52° 72° (ENE) 20:43:18 .
ZACube-1 22 Sep 20:36:35 20:40:56 84° 75° (ENE) 20:45:25 437.345
STRAND 1 22 Sep 20:37:27 20:42:34 62° 102° (ESE) 20:47:39 437.568
Max Valier Satellite 22 Sep 20:42:42 20:43:42 11° 60° (ENE) 20:44:41 145.860
AAUSAT CUBESAT 2 22 Sep 20:55:15 20:59:09 38° 263° (W) 21:03:03 437.432
HO-68 22 Sep 20:56:42 21:02:22 25° 269° (W) 21:08:03 435.675
CUTE 1.7 + AOD 2 22 Sep 20:58:08 21:00:01 13° 272° (W) 21:01:53 437.475
DELFI C3 22 Sep 20:58:35 21:01:39 22° 66° (ENE) 21:04:45 145.870
FO-29 22 Sep 20:59:15 21:02:12 14° 89° (E) 21:05:16 435.910
Tancredo 1 22 Sep 21:00:16 21:02:55 56° 150° (SSE) 21:05:35 437.200
ISS 22 Sep 21:01:30 21:03:08 13° 134° (SE) 21:04:46 437.550
SO-50 22 Sep 21:09:30 21:12:05 15° 26° (NNE) 21:14:40 436.795
CUBEBUG 2 22 Sep 21:16:39 21:18:59 14° 272° (W) 21:21:22 437.445
UWE-3 22 Sep 21:24:36 21:27:44 19° 269° (W) 21:30:57 435.000/436.395/437.385
AO-85 22 Sep 21:27:10 21:30:59 59° 123° (ESE) 21:34:53 145.980
NO-84 22 Sep 21:31:36 21:33:42 18° 228° (SW) 21:35:44 435.350 FM
BEESAT 3 22 Sep 21:38:38 21:42:27 41° 314° (NW) 21:46:19 437.485
nSIGHT-1 22 Sep 21:41:18 21:44:09 30° 142° (SE) 21:47:03 .
EO-88 22 Sep 21:42:50 21:46:12 35° 70° (ENE) 21:49:35 145.990 - 145.960
BEESAT 2 22 Sep 21:43:19 21:47:20 83° 126° (SE) 21:51:25 435.950
UNISAT 6 22 Sep 21:57:21 22:00:07 15° 89° (E) 22:02:53 437.425
Oscar 11 22 Sep 22:12:34 22:15:28 17° 269° (W) 22:18:24 .
Max Valier Satellite 22 Sep 22:13:15 22:16:57 75° 259° (WSW) 22:20:42 145.860
AO-73 22 Sep 22:13:26 22:15:28 13° 273° (W) 22:17:31 145.935
ZACube-1 22 Sep 22:16:40 22:17:52 11° 274° (W) 22:19:04 437.345
STRAND 1 22 Sep 22:17:30 22:21:18 21° 300° (WNW) 22:25:07 437.568
PCSat 22 Sep 22:19:31 22:23:12 18° 32° (NNE) 22:26:51 145.827
TIGRISAT 22 Sep 22:20:34 22:24:20 24° 93° (E) 22:28:05 435.000
DELFI C3 22 Sep 22:32:37 22:36:14 34° 263° (W) 22:39:53 145.870
Tancredo 1 22 Sep 22:35:01 22:37:33 35° 349° (N) 22:40:05 437.200
ESTCUBE 1 22 Sep 22:35:20 22:38:35 20° 62° (ENE) 22:41:51 437.505/2401.250
ISS 22 Sep 22:35:51 22:39:08 74° 151° (SSE) 22:42:25 437.550
FO-29 22 Sep 22:42:30 22:47:55 86° 286° (WNW) 22:53:53 435.910
LO-87 22 Sep 22:42:38 22:45:31 24° 67° (ENE) 22:48:26 145.935 - 145.965
SO-50 22 Sep 22:49:02 22:53:32 53° 47° (NE) 22:58:04 436.795
AO-85 22 Sep 23:08:42 23:11:43 21° 324° (NW) 23:14:48 145.980
YUBILEINY 22 Sep 23:09:14 23:17:25 42° 69° (ENE) 23:25:35 435.215
PRISM 22 Sep 23:11:09 23:14:59 38° 98° (E) 23:18:47 437.425
SPROUT 22 Sep 23:15:33 23:17:28 13° 59° (ENE) 23:19:23 437.525
nSIGHT-1 22 Sep 23:17:09 23:20:21 58° 341° (NNW) 23:23:35 .
EO-88 22 Sep 23:17:23 23:19:58 18° 267° (W) 23:22:35 145.990 - 145.960
BEESAT 3 22 Sep 23:20:00 23:21:04 11° 336° (NNW) 23:22:09 437.485
BEESAT 2 22 Sep 23:22:46 23:25:36 18° 326° (NW) 23:28:28 435.950
UNISAT 6 22 Sep 23:32:37 23:37:15 68° 287° (WNW) 23:41:56 437.425
TIGRISAT 22 Sep 23:56:45 00:01:10 44° 290° (WNW) 00:05:37 435.000
AIST 2D 23 Sep 00:00:00 00:03:09 29° 96° (E) 00:06:15 435.315
PCSat 23 Sep 00:02:11 00:07:38 68° 54° (NE) 00:13:01 145.827
Tancredo 1 23 Sep 00:09:59 00:12:29 32° 9° (N) 00:14:58 437.200
ESTCUBE 1 23 Sep 00:10:35 00:15:01 53° 260° (W) 00:19:29 437.505/2401.250
ISS 23 Sep 00:12:40 00:15:48 39° 351° (N) 00:18:56 437.550
LO-87 23 Sep 00:15:56 00:18:52 24° 265° (W) 00:21:51 145.935 - 145.965
50 SAT 23 Sep 00:19:36 00:20:23 11° 62° (ENE) 00:21:12 437.505
DUCHIFAT 1 23 Sep 00:19:52 00:22:41 17° 91° (E) 00:25:30 145.980
DX 1 23 Sep 00:20:52 00:23:05 14° 58° (ENE) 00:25:17 434.975-435.025
FO-29 23 Sep 00:29:26 00:32:23 15° 304° (NW) 00:35:28 435.910
SO-50 23 Sep 00:30:04 00:33:42 23° 246° (WSW) 00:37:21 436.795
POLYITAN 1 23 Sep 00:31:42 00:35:25 28° 95° (E) 00:39:07 437.675
EO-79 23 Sep 00:36:09 00:39:58 31° 96° (E) 00:43:47 145.935-145.965
VELOX 1 23 Sep 00:43:01 00:47:24 70° 73° (ENE) 00:51:47 145.980
PRISM 23 Sep 00:46:55 00:50:02 21° 296° (WNW) 00:53:08 437.425
SPROUT 23 Sep 00:48:31 00:52:45 79° 258° (WSW) 00:57:02 437.525
QB50P2 23 Sep 00:49:16 00:53:25 46° 99° (E) 00:57:32 145.880/145.840
nSIGHT-1 23 Sep 00:54:01 00:57:03 35° 0° (N) 01:00:06 .
BUGSAT 1 23 Sep 00:59:14 01:00:59 12° 89° (E) 01:02:45 437.445
YUBILEINY 23 Sep 01:06:07 01:14:23 50° 271° (W) 01:22:41 435.215
UNISAT 6 23 Sep 01:12:34 01:13:06 10° 305° (NW) 01:13:38 437.425
Oscar 19 23 Sep 01:23:42 01:25:54 13° 87° (E) 01:28:06 437.125/150
NANOSAT C BR1 23 Sep 01:25:28 01:29:46 90° 260° (W) 01:34:02 145.865
AIST 2D 23 Sep 01:33:30 01:36:11 20° 293° (WNW) 01:38:51 435.315
Tancredo 1 23 Sep 01:44:28 01:47:10 76° 206° (SSW) 01:49:51 437.200
PCSat 23 Sep 01:46:31 01:50:31 21° 253° (WSW) 01:54:29 145.827
UKube-1 23 Sep 01:49:03 01:53:18 63° 72° (ENE) 01:57:34 .
ITUPSAT 1 23 Sep 01:49:07 01:50:36 11° 54° (NE) 01:52:05 437.325
50 SAT 23 Sep 01:49:10 01:52:26 57° 259° (WSW) 01:55:43 437.505
ISS 23 Sep 01:49:33 01:52:43 41° 11° (NNE) 01:55:52 437.550
DX 1 23 Sep 01:54:21 01:58:41 77° 257° (WSW) 02:03:02 434.975-435.025
DUCHIFAT 1 23 Sep 01:54:30 01:58:38 51° 289° (WNW) 02:02:46 145.980
POLYITAN 1 23 Sep 02:07:22 02:11:11 32° 293° (WNW) 02:14:59 437.675
EO-79 23 Sep 02:11:58 02:15:40 29° 293° (WNW) 02:19:20 145.935-145.965
VELOX 1 23 Sep 02:22:09 02:24:19 13° 271° (W) 02:26:29 145.980
BEESAT 23 Sep 02:23:41 02:27:21 23° 62° (ENE) 02:31:02 436.000
QB50P2 23 Sep 02:25:45 02:28:54 20° 297° (WNW) 02:32:03 145.880/145.840
M-CUBED/EXP-1 PRIME 23 Sep 02:28:27 02:31:49 71° 292° (WNW) 02:35:04 437.505
nSIGHT-1 23 Sep 02:30:30 02:33:45 63° 21° (NNE) 02:36:59 .
BUGSAT 1 23 Sep 02:32:37 02:36:49 71° 285° (WNW) 02:41:00 437.445
BEESAT 3 23 Sep 02:39:10 02:40:09 11° 24° (NNE) 02:41:07 437.485
Gurwin Techsat 1B 23 Sep 02:40:04 02:45:06 42° 98° (E) 02:50:08 435.225
O/OREOS (USA 219) 23 Sep 02:40:53 02:44:53 33° 106° (ESE) 02:48:58 437.305
AO-7 23 Sep 02:49:29 02:51:21 11° 82° (E) 02:53:12 .
MOZHAYETS 4 23 Sep 03:00:25 03:04:47 43° 69° (ENE) 03:09:10
Oscar 19 23 Sep 03:00:45 03:05:58 89° 103° (ESE) 03:11:08 437.125/150
NANOSAT C BR1 23 Sep 03:03:20 03:04:48 12° 302° (WNW) 03:06:16 145.865
Tancredo 1 23 Sep 03:20:32 03:21:14 11° 225° (SW) 03:21:58 437.200
ITUPSAT 1 23 Sep 03:22:48 03:27:34 73° 73° (ENE) 03:32:22 437.325
ISS 23 Sep 03:26:03 03:29:18 61° 211° (SSW) 03:32:33 437.550
CUBESAT XI-V 23 Sep 03:26:07 03:29:29 20° 62° (ENE) 03:32:53 437.345
UKube-1 23 Sep 03:27:23 03:29:44 14° 270° (W) 03:32:05 .
